Location: Zagreb
(45.8000°N, 16.0000°E)
Time: 03:44:56
(UTC+02:00)

Courier 1B Rocket - All Passes

Search period start: 08 August 2022 00:00
Search period end: 18 August 2022 00:00
Orbit: 920 x 1202 km, 28.2° (Epoch: 07 August)

Date Brightness Start Highest point End Pass type
(mag) Time Alt. Az. Time Alt. Az. Time Alt. Az.
08 Aug - 19:38:00 10° SSW 19:41:53 16° S 19:45:54 10° SE daylight
08 Aug - 21:30:11 10° SW 21:34:11 16° S 21:38:20 10° SSE visible
09 Aug - 18:37:59 10° SSW 18:41:11 14° SSE 18:44:29 10° SE daylight
09 Aug - 20:29:23 10° SW 20:33:25 17° S 20:37:36 10° SE daylight
09 Aug - 22:23:29 10° SW 22:25:42 12° SSW 22:27:58 10° S visible
10 Aug - 17:38:34 10° S 17:40:32 11° SSE 17:42:33 10° SE daylight
10 Aug - 19:28:49 10° SW 19:32:42 16° S 19:36:42 10° SE daylight
10 Aug - 21:21:49 10° SW 21:24:58 14° SSW 21:28:11 10° SSE visible
11 Aug - 18:28:28 10° SSW 18:32:00 15° S 18:35:36 10° SE daylight
11 Aug - 20:20:43 10° SW 20:24:14 15° S 20:27:52 10° SSE daylight
12 Aug - 17:28:26 10° SSW 17:31:20 13° SSE 17:34:17 10° SE daylight
12 Aug - 19:19:53 10° SW 19:23:31 16° S 19:27:15 10° SSE daylight
12 Aug - 21:14:39 10° SSW 21:15:44 10° SSW 21:16:49 10° S visible
13 Aug - 16:29:00 10° S 16:30:42 11° SSE 16:32:25 10° SSE daylight
13 Aug - 18:19:16 10° SSW 18:22:50 16° S 18:26:29 10° SE daylight
13 Aug - 20:12:29 10° SW 20:15:03 12° SSW 20:17:38 10° S daylight
14 Aug - 17:18:52 10° SSW 17:22:10 15° S 17:25:30 10° SE daylight
14 Aug - 19:11:15 10° SW 19:14:21 14° S 19:17:31 10° SSE daylight
15 Aug - 16:18:43 10° SSW 16:21:31 13° S 16:24:19 10° SE daylight
15 Aug - 18:10:20 10° SW 18:13:41 15° S 18:17:05 10° SSE daylight
16 Aug - 15:19:07 10° S 15:20:53 11° SSE 15:22:39 10° SSE daylight
16 Aug - 17:09:37 10° SSW 17:13:01 15° S 17:16:27 10° SE daylight
16 Aug - 19:03:12 10° SSW 19:05:11 12° SSW 19:07:11 10° S daylight
17 Aug - 16:09:06 10° SSW 16:12:22 15° S 16:15:38 10° SE daylight
17 Aug - 18:01:43 10° SW 18:04:32 13° S 18:07:22 10° SSE daylight
